Location: Endfield
(51.6667°N, 0.0667°W)
Time: 02:35:44
(UTC+00:00)

Spot 1 - Pass Details

Date: 19 May 2024
Orbit: 572 x 765 km, 98.7° (Epoch: 21 June)

Event Time Altitude Azimuth Distance (km) Brightness Sun altitude
Rises 21:18:29 0° 20° (NNE) 2,798 7.9 -10.4°
Reaches altitude 10° 21:20:43 10° 27° (NNE) 1,890 6.9 -10.6°
Maximum altitude 21:24:36 43° 100° (E) 815 4.4 -11.0°
Enters shadow 21:27:55 14° 170° (S) 1,665 5.7 -11.3°
